Time,TemperatureF,DewpointF,PressureIn,WindDirection,WindDirectionDegrees,WindSpeedMPH,WindSpeedGustMPH,Humidity,HourlyPrecipIn,Conditions,Clouds,dailyrainin,SoftwareType,DateUTC
2013-03-05 00:02:00,26.5,21.0,29.71,NNW,348,5.0,16.0,80,0.00,,,0.00,weatherlink.com 1.10,2013-03-05 05:02:00,
2013-03-05 00:17:00,26.5,21.0,29.72,WSW,239,1.0,13.0,79,0.00,,,0.00,weatherlink.com 1.10,2013-03-05 05:17:00,
2013-03-05 00:32:00,26.5,21.0,29.72,East,96,1.0,8.0,79,0.00,,,0.00,weatherlink.com 1.10,2013-03-05 05:32:00,
2013-03-05 00:47:00,26.6,21.0,29.73,NE,44,0.0,8.0,79,0.00,,,0.00,weatherlink.com 1.10,2013-03-05 05:47:00,
2013-03-05 01:02:00,26.4,21.0,29.73,WSW,244,1.0,9.0,79,0.00,,,0.00,weatherlink.com 1.10,2013-03-05 06:02:00,
2013-03-05 01:17:00,26.6,21.0,29.73,NNW,336,4.0,10.0,79,0.00,,,0.00,weatherlink.com 1.10,2013-03-05 06:17:00,
2013-03-05 01:32:00,26.9,21.0,29.74,North,10,0.0,8.0,79,0.00,,,0.00,weatherlink.com 1.10,2013-03-05 06:32:00,
2013-03-05 01:47:00,26.6,21.0,29.74,WNW,302,1.0,6.0,79,0.00,,,0.00,weatherlink.com 1.10,2013-03-05 06:47:00,
2013-03-05 02:02:00,26.6,21.0,29.74,WSW,257,0.0,7.0,79,0.00,,,0.00,weatherlink.com 1.10,2013-03-05 07:02:00,
2013-03-05 02:17:00,26.5,21.0,29.75,NNW,348,0.0,9.0,79,0.00,,,0.00,weatherlink.com 1.10,2013-03-05 07:17:00,
2013-03-05 02:32:00,26.2,21.0,29.75,SSE,155,0.0,2.0,80,0.00,,,0.00,weatherlink.com 1.10,2013-03-05 07:32:00,
2013-03-05 02:47:00,26.2,21.0,29.75,SE,144,0.0,4.0,81,0.00,,,0.00,weatherlink.com 1.10,2013-03-05 07:47:00,
2013-03-05 03:02:00,26.4,21.0,29.75,North,360,0.0,8.0,81,0.00,,,0.00,weatherlink.com 1.10,2013-03-05 08:02:00,
2013-03-05 03:17:00,26.7,21.0,29.76,NW,317,3.0,9.0,80,0.00,,,0.00,weatherlink.com 1.10,2013-03-05 08:17:00,
2013-03-05 03:32:00,26.8,21.0,29.77,NE,42,2.0,8.0,80,0.00,,,0.00,weatherlink.com 1.10,2013-03-05 08:32:00,
2013-03-05 03:47:00,26.9,22.0,29.77,East,79,3.0,15.0,80,0.00,,,0.00,weatherlink.com 1.10,2013-03-05 08:47:00,
2013-03-05 04:02:00,26.9,22.0,29.78,NNW,340,6.0,12.0,80,0.00,,,0.00,weatherlink.com 1.10,2013-03-05 09:02:00,
2013-03-05 04:17:00,27.0,21.0,29.78,North,355,2.0,12.0,79,0.00,,,0.00,weatherlink.com 1.10,2013-03-05 09:17:00,
2013-03-05 04:32:00,26.9,22.0,29.79,NNW,331,2.0,9.0,80,0.00,,,0.00,weatherlink.com 1.10,2013-03-05 09:32:00,
2013-03-05 04:47:00,27.0,22.0,29.79,NE,56,0.0,13.0,80,0.00,,,0.00,weatherlink.com 1.10,2013-03-05 09:47:00,
2013-03-05 05:02:00,27.2,22.0,29.80,North,5,1.0,12.0,79,0.00,,,0.00,weatherlink.com 1.10,2013-03-05 10:02:00,
2013-03-05 05:17:00,27.2,22.0,29.80,North,360,0.0,7.0,79,0.00,,,0.00,weatherlink.com 1.10,2013-03-05 10:17:00,
2013-03-05 05:32:00,27.3,22.0,29.80,NW,321,3.0,12.0,79,0.00,,,0.00,weatherlink.com 1.10,2013-03-05 10:32:00,
2013-03-05 05:47:00,27.3,22.0,29.82,SSW,196,3.0,5.0,79,0.00,,,0.00,weatherlink.com 1.10,2013-03-05 10:47:00,
2013-03-05 06:02:00,27.1,22.0,29.82,SW,217,1.0,3.0,80,0.00,,,0.00,weatherlink.com 1.10,2013-03-05 11:02:00,
2013-03-05 06:17:00,27.3,22.0,29.83,NNW,340,0.0,5.0,80,0.00,,,0.00,weatherlink.com 1.10,2013-03-05 11:17:00,
2013-03-05 06:47:00,27.4,22.0,29.84,South,188,0.0,5.0,80,0.00,,,0.00,weatherlink.com 1.10,2013-03-05 11:47:00,
2013-03-05 07:02:00,27.5,22.0,29.85,ENE,57,0.0,4.0,80,0.00,,,0.00,weatherlink.com 1.10,2013-03-05 12:02:00,
2013-03-05 07:17:00,27.9,23.0,29.86,SSE,157,4.0,5.0,80,0.00,,,0.00,weatherlink.com 1.10,2013-03-05 12:17:00,
2013-03-05 07:32:00,28.5,23.0,29.86,South,191,2.0,5.0,79,0.00,,,0.00,weatherlink.com 1.10,2013-03-05 12:32:00,
2013-03-05 07:47:00,30.1,24.0,29.86,NW,321,6.0,7.0,78,0.00,,,0.00,weatherlink.com 1.10,2013-03-05 12:47:00,
2013-03-05 08:02:00,31.2,24.0,29.87,South,169,0.0,9.0,75,0.00,,,0.00,weatherlink.com 1.10,2013-03-05 13:02:00,
2013-03-05 08:17:00,31.0,24.0,29.88,SSW,199,0.0,5.0,75,0.00,,,0.00,weatherlink.com 1.10,2013-03-05 13:17:00,
2013-03-05 08:32:00,30.9,24.0,29.88,NE,49,0.0,7.0,76,0.00,,,0.00,weatherlink.com 1.10,2013-03-05 13:32:00,
2013-03-05 08:47:00,31.2,24.0,29.88,ESE,106,0.0,6.0,76,0.00,,,0.00,weatherlink.com 1.10,2013-03-05 13:47:00,
2013-03-05 09:02:00,32.2,25.0,29.89,ENE,75,1.0,7.0,75,0.00,,,0.00,weatherlink.com 1.10,2013-03-05 14:02:00,
2013-03-05 09:17:00,33.7,26.0,29.89,ESE,102,1.0,9.0,72,0.00,,,0.00,weatherlink.com 1.10,2013-03-05 14:17:00,
2013-03-05 09:32:00,33.4,25.0,29.90,SSW,210,4.0,5.0,72,0.00,,,0.00,weatherlink.com 1.10,2013-03-05 14:32:00,
2013-03-05 09:47:00,33.4,26.0,29.91,NNW,342,0.0,7.0,73,0.00,,,0.00,weatherlink.com 1.10,2013-03-05 14:47:00,
2013-03-05 10:02:00,34.4,26.0,29.90,NNW,331,0.0,5.0,71,0.00,,,0.00,weatherlink.com 1.10,2013-03-05 15:02:00,
2013-03-05 10:17:00,34.4,26.0,29.90,NW,312,1.0,8.0,71,0.00,,,0.00,weatherlink.com 1.10,2013-03-05 15:17:00,
2013-03-05 10:32:00,35.2,26.0,29.89,NNW,340,1.0,8.0,70,0.00,,,0.00,weatherlink.com 1.10,2013-03-05 15:32:00,
2013-03-05 10:48:00,36.1,27.0,29.89,North,360,5.0,9.0,69,0.00,,,0.00,weatherlink.com 1.10,2013-03-05 15:48:00,
2013-03-05 11:03:00,37.2,27.0,29.89,West,264,0.0,8.0,67,0.00,,,0.00,weatherlink.com 1.10,2013-03-05 16:03:00,
2013-03-05 11:18:00,38.2,27.0,29.89,West,279,1.0,7.0,65,0.00,,,0.00,weatherlink.com 1.10,2013-03-05 16:18:00,
2013-03-05 11:33:00,39.6,27.0,29.88,NNW,338,3.0,7.0,62,0.00,,,0.00,weatherlink.com 1.10,2013-03-05 16:33:00,
2013-03-05 11:48:00,40.7,28.0,29.88,NNW,344,3.0,8.0,61,0.00,,,0.00,weatherlink.com 1.10,2013-03-05 16:48:00,
2013-03-05 12:03:00,41.3,28.0,29.89,NNW,347,2.0,8.0,59,0.00,,,0.00,weatherlink.com 1.10,2013-03-05 17:03:00,
2013-03-05 12:18:00,42.6,28.0,29.88,NE,35,1.0,5.0,57,0.00,,,0.00,weatherlink.com 1.10,2013-03-05 17:18:00,
2013-03-05 12:33:00,42.7,28.0,29.89,NNW,346,4.0,8.0,56,0.00,,,0.00,weatherlink.com 1.10,2013-03-05 17:33:00,
2013-03-05 12:48:00,42.2,28.0,29.89,North,360,5.0,8.0,57,0.00,,,0.00,weatherlink.com 1.10,2013-03-05 17:48:00,
2013-03-05 13:03:00,42.5,28.0,29.89,NW,306,4.0,5.0,57,0.00,,,0.00,weatherlink.com 1.10,2013-03-05 18:03:00,
2013-03-05 13:18:00,42.8,28.0,29.89,NW,326,0.0,7.0,57,0.00,,,0.00,weatherlink.com 1.10,2013-03-05 18:18:00,
2013-03-05 13:33:00,43.4,28.0,29.89,NNW,338,6.0,9.0,56,0.00,,,0.00,weatherlink.com 1.10,2013-03-05 18:33:00,
2013-03-05 13:48:00,42.9,28.0,29.90,NW,325,0.0,5.0,57,0.00,,,0.00,weatherlink.com 1.10,2013-03-05 18:48:00,
2013-03-05 14:03:00,43.4,28.0,29.90,NW,313,0.0,5.0,55,0.00,,,0.00,weatherlink.com 1.10,2013-03-05 19:03:00,
2013-03-05 14:18:00,43.5,29.0,29.90,NW,313,0.0,3.0,56,0.00,,,0.00,weatherlink.com 1.10,2013-03-05 19:18:00,
2013-03-05 14:33:00,42.7,28.0,29.91,NE,45,0.0,5.0,57,0.00,,,0.00,weatherlink.com 1.10,2013-03-05 19:33:00,
2013-03-05 14:48:00,42.5,28.0,29.91,NE,40,1.0,3.0,57,0.00,,,0.00,weatherlink.com 1.10,2013-03-05 19:48:00,
2013-03-05 15:03:00,42.4,29.0,29.91,NNW,338,1.0,4.0,59,0.00,,,0.00,weatherlink.com 1.10,2013-03-05 20:03:00,
2013-03-05 15:18:00,42.4,29.0,29.92,NE,40,3.0,4.0,59,0.00,,,0.00,weatherlink.com 1.10,2013-03-05 20:18:00,
2013-03-05 15:33:00,42.3,29.0,29.92,ENE,59,0.0,2.0,59,0.00,,,0.00,weatherlink.com 1.10,2013-03-05 20:33:00,
2013-03-05 15:48:00,42.2,29.0,29.92,ENE,58,0.0,2.0,60,0.00,,,0.00,weatherlink.com 1.10,2013-03-05 20:48:00,
2013-03-05 16:03:00,42.0,29.0,29.93,ENE,57,1.0,2.0,61,0.00,,,0.00,weatherlink.com 1.10,2013-03-05 21:03:00,
2013-03-05 16:18:00,41.3,29.0,29.93,NNE,15,1.0,3.0,63,0.00,,,0.00,weatherlink.com 1.10,2013-03-05 21:18:00,
2013-03-05 16:33:00,41.0,30.0,29.94,NNE,14,1.0,4.0,64,0.00,,,0.00,weatherlink.com 1.10,2013-03-05 21:33:00,
2013-03-05 16:48:00,40.8,29.0,29.95,NNE,14,0.0,1.0,64,0.00,,,0.00,weatherlink.com 1.10,2013-03-05 21:48:00,
2013-03-05 17:03:00,40.2,31.0,29.96,North,355,0.0,5.0,69,0.00,,,0.00,weatherlink.com 1.10,2013-03-05 22:03:00,
2013-03-05 17:18:00,39.2,31.0,29.96,NE,53,0.0,2.0,73,0.00,,,0.00,weatherlink.com 1.10,2013-03-05 22:18:00,
2013-03-05 17:33:00,38.3,32.0,29.96,NNE,15,0.0,4.0,78,0.00,,,0.00,weatherlink.com 1.10,2013-03-05 22:33:00,
2013-03-05 17:48:00,37.7,32.0,29.96,NNE,15,0.0,0.0,80,0.00,,,0.00,weatherlink.com 1.10,2013-03-05 22:48:00,
2013-03-05 18:03:00,37.1,32.0,29.97,NNE,15,0.0,2.0,82,0.00,,,0.00,weatherlink.com 1.10,2013-03-05 23:03:00,
2013-03-05 18:18:00,35.9,32.0,29.97,NNE,15,0.0,0.0,84,0.00,,,0.00,weatherlink.com 1.10,2013-03-05 23:18:00,
2013-03-05 18:48:00,33.4,30.0,29.97,NNE,15,0.0,1.0,88,0.00,,,0.00,weatherlink.com 1.10,2013-03-05 23:48:00,
2013-03-05 19:03:00,32.8,30.0,29.98,NNE,15,0.0,0.0,90,0.00,,,0.00,weatherlink.com 1.10,2013-03-06 00:03:00,
2013-03-05 19:18:00,32.3,30.0,29.98,NNE,15,0.0,0.0,91,0.00,,,0.00,weatherlink.com 1.10,2013-03-06 00:18:00,
2013-03-05 19:33:00,31.5,30.0,29.98,NNE,15,0.0,1.0,92,0.00,,,0.00,weatherlink.com 1.10,2013-03-06 00:33:00,
2013-03-05 19:48:00,31.3,30.0,29.99,NNE,15,0.0,1.0,93,0.00,,,0.00,weatherlink.com 1.10,2013-03-06 00:48:00,
2013-03-05 20:18:00,31.2,30.0,29.99,NNE,15,0.0,0.0,94,0.00,,,0.00,weatherlink.com 1.10,2013-03-06 01:18:00,
2013-03-05 20:33:00,31.2,30.0,29.99,NNE,15,0.0,0.0,94,0.00,,,0.00,weatherlink.com 1.10,2013-03-06 01:33:00,
2013-03-05 20:48:00,31.4,30.0,29.99,NNE,15,0.0,0.0,94,0.00,,,0.00,weatherlink.com 1.10,2013-03-06 01:48:00,
2013-03-05 21:18:00,31.8,30.0,29.99,NNE,15,0.0,0.0,94,0.00,,,0.00,weatherlink.com 1.10,2013-03-06 02:18:00,
2013-03-05 21:33:00,31.8,30.0,29.99,NNE,15,0.0,0.0,94,0.00,,,0.00,weatherlink.com 1.10,2013-03-06 02:33:00,
2013-03-05 21:48:00,32.0,31.0,29.99,NNE,15,0.0,0.0,94,0.00,,,0.00,weatherlink.com 1.10,2013-03-06 02:48:00,
2013-03-05 22:03:00,32.0,31.0,29.99,NNE,15,0.0,0.0,94,0.00,,,0.00,weatherlink.com 1.10,2013-03-06 03:03:00,
2013-03-05 22:18:00,32.1,31.0,29.99,NNE,15,0.0,0.0,94,0.00,,,0.00,weatherlink.com 1.10,2013-03-06 03:18:00,
2013-03-05 22:33:00,32.3,31.0,29.99,NNE,15,0.0,0.0,94,0.00,,,0.00,weatherlink.com 1.10,2013-03-06 03:33:00,
2013-03-05 22:48:00,32.4,31.0,30.00,NNE,15,0.0,0.0,94,0.00,,,0.00,weatherlink.com 1.10,2013-03-06 03:48:00,
2013-03-05 23:03:00,32.4,31.0,30.00,NNE,15,0.0,0.0,94,0.00,,,0.00,weatherlink.com 1.10,2013-03-06 04:03:00,
2013-03-05 23:18:00,32.5,31.0,30.00,NNE,15,0.0,1.0,94,0.00,,,0.00,weatherlink.com 1.10,2013-03-06 04:18:00,
2013-03-05 23:34:00,32.5,31.0,30.01,NNE,15,0.0,0.0,94,0.00,,,0.00,weatherlink.com 1.10,2013-03-06 04:34:00,
2013-03-05 23:49:00,32.6,31.0,30.01,NNE,15,0.0,0.0,94,0.00,,,0.00,weatherlink.com 1.10,2013-03-06 04:49:00,